Time,TemperatureF,DewpointF,PressureIn,WindDirection,WindDirectionDegrees,WindSpeedMPH,WindSpeedGustMPH,Humidity,HourlyPrecipIn,Conditions,Clouds,dailyrainin,SoftwareType,DateUTC
2013-12-08 00:04:00,11.7,2.5,30.55,NNE,19,1.0,7.0,66,0.00,,,0.00,Wunderground v.1.15,2013-12-08 06:04:00,
2013-12-08 00:10:00,11.7,2.5,30.53,NNE,19,2.0,2.0,66,0.00,,,0.00,Wunderground v.1.15,2013-12-08 06:10:00,
2013-12-08 00:16:00,11.7,2.5,30.53,NNE,19,2.0,7.0,66,0.00,,,0.00,Wunderground v.1.15,2013-12-08 06:16:00,
2013-12-08 00:21:00,11.6,2.4,30.53,NNE,19,2.0,7.0,66,0.00,,,0.00,Wunderground v.1.15,2013-12-08 06:21:00,
2013-12-08 00:26:00,11.5,2.3,30.52,North,5,2.0,7.0,66,0.00,,,0.00,Wunderground v.1.15,2013-12-08 06:26:00,
2013-12-08 00:32:00,11.5,2.3,30.51,NNE,13,3.0,7.0,66,0.00,,,0.00,Wunderground v.1.15,2013-12-08 06:32:00,
2013-12-08 00:38:00,11.5,2.3,30.51,NNE,15,3.0,7.0,66,0.00,,,0.00,Wunderground v.1.15,2013-12-08 06:38:00,
2013-12-08 00:43:00,11.5,2.7,30.51,North,350,2.0,7.0,67,0.00,,,0.00,Wunderground v.1.15,2013-12-08 06:43:00,
2013-12-08 00:49:00,11.5,2.3,30.50,North,10,2.0,7.0,66,0.00,,,0.00,Wunderground v.1.15,2013-12-08 06:49:00,
2013-12-08 00:55:00,11.6,2.8,30.50,NNW,344,2.0,7.0,67,0.00,,,0.00,Wunderground v.1.15,2013-12-08 06:55:00,
2013-12-08 01:01:00,11.6,2.4,30.49,ESE,105,2.0,7.0,66,0.00,,,0.00,Wunderground v.1.15,2013-12-08 07:01:00,
2013-12-08 01:06:00,11.6,2.4,30.49,North,5,3.0,7.0,66,0.00,,,0.00,Wunderground v.1.15,2013-12-08 07:06:00,
2013-12-08 01:12:00,11.6,2.4,30.48,ESE,119,3.0,7.0,66,0.00,,,0.00,Wunderground v.1.15,2013-12-08 07:12:00,
2013-12-08 01:18:00,11.7,2.5,30.47,ENE,70,2.0,7.0,66,0.00,,,0.00,Wunderground v.1.15,2013-12-08 07:18:00,
2013-12-08 01:24:00,11.8,2.6,30.48,ESE,116,2.0,7.0,66,0.00,,,0.00,Wunderground v.1.15,2013-12-08 07:24:00,
2013-12-08 01:29:00,11.8,2.6,30.48,ESE,117,2.0,7.0,66,0.00,,,0.00,Wunderground v.1.15,2013-12-08 07:29:00,
2013-12-08 01:35:00,11.9,2.7,30.47,NNE,13,2.0,7.0,66,0.00,,,0.00,Wunderground v.1.15,2013-12-08 07:35:00,
2013-12-08 01:41:00,11.9,2.7,30.47,ENE,69,3.0,5.0,66,0.00,,,0.00,Wunderground v.1.15,2013-12-08 07:41:00,
2013-12-08 01:46:00,11.9,2.7,30.47,ENE,69,2.0,7.0,66,0.00,,,0.00,Wunderground v.1.15,2013-12-08 07:46:00,
2013-12-08 01:52:00,11.9,2.7,30.46,NNE,16,2.0,7.0,66,0.00,,,0.00,Wunderground v.1.15,2013-12-08 07:52:00,
2013-12-08 01:58:00,11.9,2.7,30.46,North,5,2.0,7.0,66,0.00,,,0.00,Wunderground v.1.15,2013-12-08 07:58:00,
2013-12-08 02:04:00,11.9,2.7,30.45,NE,46,3.0,7.0,66,0.00,,,0.00,Wunderground v.1.15,2013-12-08 08:04:00,
2013-12-08 02:10:00,11.9,2.7,30.46,NNE,14,3.0,7.0,66,0.00,,,0.00,Wunderground v.1.15,2013-12-08 08:10:00,
2013-12-08 02:16:00,11.9,2.7,30.45,East,83,4.0,7.0,66,0.00,,,0.00,Wunderground v.1.15,2013-12-08 08:16:00,
2013-12-08 02:22:00,11.9,2.7,30.45,ESE,103,4.0,7.0,66,0.00,,,0.00,Wunderground v.1.15,2013-12-08 08:22:00,
2013-12-08 02:28:00,12.0,2.8,30.45,NE,42,4.0,7.0,66,0.00,,,0.00,Wunderground v.1.15,2013-12-08 08:28:00,
2013-12-08 02:34:00,12.0,3.1,30.44,ESE,107,2.0,7.0,67,0.00,,,0.00,Wunderground v.1.15,2013-12-08 08:34:00,
2013-12-08 02:40:00,12.1,2.9,30.44,ESE,119,4.0,4.0,66,0.00,,,0.00,Wunderground v.1.15,2013-12-08 08:40:00,
2013-12-08 02:46:00,12.1,3.2,30.44,East,82,4.0,7.0,67,0.00,,,0.00,Wunderground v.1.15,2013-12-08 08:46:00,
2013-12-08 02:52:00,12.1,3.2,30.44,East,84,3.0,7.0,67,0.00,,,0.00,Wunderground v.1.15,2013-12-08 08:52:00,
2013-12-08 02:58:00,12.2,3.3,30.44,ESE,122,3.0,7.0,67,0.00,,,0.00,Wunderground v.1.15,2013-12-08 08:58:00,
2013-12-08 03:04:00,12.2,3.3,30.44,East,95,3.0,7.0,67,0.00,,,0.00,Wunderground v.1.15,2013-12-08 09:04:00,
2013-12-08 03:09:00,12.2,3.3,30.43,ESE,110,3.0,7.0,67,0.00,,,0.00,Wunderground v.1.15,2013-12-08 09:09:00,
2013-12-08 03:14:00,12.2,3.6,30.44,ESE,106,4.0,7.0,68,0.00,,,0.00,Wunderground v.1.15,2013-12-08 09:14:00,
2013-12-08 03:20:00,12.1,4.2,30.42,ENE,71,4.0,7.0,70,0.00,,,0.00,Wunderground v.1.15,2013-12-08 09:20:00,
2013-12-08 03:25:00,11.9,4.3,30.43,East,92,4.0,7.0,71,0.00,,,0.00,Wunderground v.1.15,2013-12-08 09:25:00,
2013-12-08 03:31:00,11.8,4.5,30.42,East,84,4.0,7.0,72,0.00,,,0.00,Wunderground v.1.15,2013-12-08 09:31:00,
2013-12-08 03:37:00,11.7,5.0,30.42,NE,49,3.0,7.0,74,0.00,,,0.00,Wunderground v.1.15,2013-12-08 09:37:00,
2013-12-08 03:43:00,11.7,5.0,30.41,East,91,3.0,7.0,74,0.00,,,0.00,Wunderground v.1.15,2013-12-08 09:43:00,
2013-12-08 03:49:00,11.7,5.3,30.41,ESE,109,3.0,9.0,75,0.00,,,0.00,Wunderground v.1.15,2013-12-08 09:49:00,
2013-12-08 03:54:00,11.7,5.3,30.41,ENE,75,4.0,7.0,75,0.00,,,0.00,Wunderground v.1.15,2013-12-08 09:54:00,
2013-12-08 04:00:00,11.8,5.4,30.40,ENE,68,4.0,7.0,75,0.00,,,0.00,Wunderground v.1.15,2013-12-08 10:00:00,
2013-12-08 04:06:00,11.8,5.4,30.39,ESE,123,3.0,7.0,75,0.00,,,0.00,Wunderground v.1.15,2013-12-08 10:06:00,
2013-12-08 04:12:00,11.9,5.5,30.39,NNE,17,3.0,7.0,75,0.00,,,0.00,Wunderground v.1.15,2013-12-08 10:12:00,
2013-12-08 04:18:00,12.0,5.6,30.39,NNE,15,3.0,7.0,75,0.00,,,0.00,Wunderground v.1.15,2013-12-08 10:18:00,
2013-12-08 04:23:00,12.1,5.7,30.38,East,95,3.0,7.0,75,0.00,,,0.00,Wunderground v.1.15,2013-12-08 10:23:00,
2013-12-08 04:29:00,12.2,5.5,30.38,East,82,3.0,7.0,74,0.00,,,0.00,Wunderground v.1.15,2013-12-08 10:29:00,
2013-12-08 04:35:00,12.2,5.5,30.37,ESE,113,3.0,7.0,74,0.00,,,0.00,Wunderground v.1.15,2013-12-08 10:35:00,
2013-12-08 04:41:00,12.3,5.3,30.37,NNE,26,3.0,7.0,73,0.00,,,0.00,Wunderground v.1.15,2013-12-08 10:41:00,
2013-12-08 04:47:00,12.3,5.0,30.37,East,85,4.0,7.0,72,0.00,,,0.00,Wunderground v.1.15,2013-12-08 10:47:00,
2013-12-08 04:53:00,12.5,5.2,30.37,East,88,4.0,7.0,72,0.00,,,0.00,Wunderground v.1.15,2013-12-08 10:53:00,
2013-12-08 04:58:00,12.5,4.9,30.36,North,360,4.0,7.0,71,0.00,,,0.00,Wunderground v.1.15,2013-12-08 10:58:00,
2013-12-08 05:04:00,12.5,4.9,30.36,East,85,4.0,7.0,71,0.00,,,0.00,Wunderground v.1.15,2013-12-08 11:04:00,
2013-12-08 05:10:00,12.6,5.0,30.36,East,90,4.0,7.0,71,0.00,,,0.00,Wunderground v.1.15,2013-12-08 11:10:00,
2013-12-08 05:15:00,12.7,5.1,30.35,SE,128,4.0,9.0,71,0.00,,,0.00,Wunderground v.1.15,2013-12-08 11:15:00,
2013-12-08 05:21:00,12.6,4.7,30.35,ENE,70,6.0,10.0,70,0.00,,,0.00,Wunderground v.1.15,2013-12-08 11:21:00,
2013-12-08 05:27:00,12.7,4.8,30.35,ESE,104,5.0,10.0,70,0.00,,,0.00,Wunderground v.1.15,2013-12-08 11:27:00,
2013-12-08 05:33:00,12.8,4.9,30.35,ESE,106,4.0,7.0,70,0.00,,,0.00,Wunderground v.1.15,2013-12-08 11:33:00,
2013-12-08 05:38:00,12.7,4.4,30.34,ENE,74,4.0,11.0,69,0.00,,,0.00,Wunderground v.1.15,2013-12-08 11:38:00,
2013-12-08 05:44:00,12.8,4.5,30.34,NNE,28,5.0,7.0,69,0.00,,,0.00,Wunderground v.1.15,2013-12-08 11:44:00,
2013-12-08 05:50:00,12.8,4.5,30.34,East,79,5.0,5.0,69,0.00,,,0.00,Wunderground v.1.15,2013-12-08 11:50:00,
2013-12-08 05:56:00,12.9,4.6,30.33,ENE,67,5.0,8.0,69,0.00,,,0.00,Wunderground v.1.15,2013-12-08 11:56:00,
2013-12-08 06:01:00,12.9,4.6,30.33,ESE,118,5.0,7.0,69,0.00,,,0.00,Wunderground v.1.15,2013-12-08 12:01:00,
2013-12-08 06:07:00,13.0,5.0,30.32,NE,55,4.0,7.0,70,0.00,,,0.00,Wunderground v.1.15,2013-12-08 12:07:00,
2013-12-08 06:12:00,13.0,5.0,30.32,East,87,4.0,7.0,70,0.00,,,0.00,Wunderground v.1.15,2013-12-08 12:12:00,
2013-12-08 06:18:00,13.1,5.1,30.32,ENE,65,4.0,7.0,70,0.00,,,0.00,Wunderground v.1.15,2013-12-08 12:18:00,
2013-12-08 06:24:00,13.1,4.8,30.31,SE,130,4.0,7.0,69,0.00,,,0.00,Wunderground v.1.15,2013-12-08 12:24:00,
2013-12-08 06:30:00,13.1,4.8,30.32,ENE,59,5.0,5.0,69,0.00,,,0.00,Wunderground v.1.15,2013-12-08 12:30:00,
2013-12-08 06:36:00,13.1,4.8,30.32,East,80,5.0,7.0,69,0.00,,,0.00,Wunderground v.1.15,2013-12-08 12:36:00,
2013-12-08 06:42:00,13.2,4.9,30.31,East,94,4.0,7.0,69,0.00,,,0.00,Wunderground v.1.15,2013-12-08 12:42:00,
2013-12-08 06:48:00,13.2,4.9,30.30,East,79,5.0,7.0,69,0.00,,,0.00,Wunderground v.1.15,2013-12-08 12:48:00,
2013-12-08 06:53:00,13.3,5.0,30.30,NNE,28,4.0,7.0,69,0.00,,,0.00,Wunderground v.1.15,2013-12-08 12:53:00,
2013-12-08 06:59:00,13.3,5.3,30.30,North,355,3.0,7.0,70,0.00,,,0.00,Wunderground v.1.15,2013-12-08 12:59:00,
2013-12-08 07:04:00,13.3,5.3,30.30,ESE,111,3.0,7.0,70,0.00,,,0.00,Wunderground v.1.15,2013-12-08 13:04:00,
2013-12-08 07:10:00,13.2,5.9,30.29,ENE,70,4.0,7.0,72,0.00,,,0.00,Wunderground v.1.15,2013-12-08 13:10:00,
2013-12-08 07:16:00,13.0,6.3,30.28,SE,126,5.0,10.0,74,0.00,,,0.00,Wunderground v.1.15,2013-12-08 13:16:00,
2013-12-08 07:22:00,12.9,6.5,30.27,NE,55,4.0,10.0,75,0.00,,,0.00,Wunderground v.1.15,2013-12-08 13:22:00,
2013-12-08 07:27:00,12.9,6.8,30.28,East,79,5.0,10.0,76,0.00,,,0.00,Wunderground v.1.15,2013-12-08 13:27:00,
2013-12-08 07:33:00,12.9,7.0,30.27,North,9,5.0,7.0,77,0.00,,,0.00,Wunderground v.1.15,2013-12-08 13:33:00,
2013-12-08 07:38:00,12.9,7.3,30.26,ESE,106,4.0,7.0,78,0.00,,,0.00,Wunderground v.1.15,2013-12-08 13:38:00,
2013-12-08 07:43:00,12.9,7.3,30.26,East,80,5.0,7.0,78,0.00,,,0.00,Wunderground v.1.15,2013-12-08 13:43:00,
2013-12-08 07:49:00,13.0,8.0,30.26,NE,36,4.0,7.0,80,0.00,,,0.00,Wunderground v.1.15,2013-12-08 13:49:00,
2013-12-08 07:55:00,12.9,7.9,30.26,ESE,119,5.0,7.0,80,0.00,,,0.00,Wunderground v.1.15,2013-12-08 13:55:00,
2013-12-08 08:01:00,12.8,8.1,30.25,SE,142,6.0,7.0,81,0.00,,,0.00,Wunderground v.1.15,2013-12-08 14:01:00,
2013-12-08 08:07:00,12.9,8.2,30.25,NE,54,6.0,11.0,81,0.00,,,0.00,Wunderground v.1.15,2013-12-08 14:07:00,
2013-12-08 08:12:00,12.9,8.4,30.25,NE,39,5.0,8.0,82,0.00,,,0.00,Wunderground v.1.15,2013-12-08 14:12:00,
2013-12-08 08:18:00,12.8,8.6,30.25,East,92,5.0,8.0,83,0.00,,,0.00,Wunderground v.1.15,2013-12-08 14:18:00,
2013-12-08 08:24:00,12.9,9.0,30.25,ENE,65,5.0,7.0,84,0.00,,,0.00,Wunderground v.1.15,2013-12-08 14:24:00,
2013-12-08 08:29:00,13.0,9.1,30.25,East,94,4.0,7.0,84,0.00,,,0.00,Wunderground v.1.15,2013-12-08 14:29:00,
2013-12-08 08:35:00,12.9,9.0,30.25,ENE,74,5.0,10.0,84,0.00,,,0.00,Wunderground v.1.15,2013-12-08 14:35:00,
2013-12-08 08:40:00,12.9,9.2,30.25,North,350,5.0,5.0,85,0.00,,,0.00,Wunderground v.1.15,2013-12-08 14:40:00,
2013-12-08 08:46:00,13.0,9.3,30.25,ESE,121,5.0,7.0,85,0.00,,,0.00,Wunderground v.1.15,2013-12-08 14:46:00,
2013-12-08 08:52:00,13.0,9.6,30.25,NNE,13,5.0,7.0,86,0.00,,,0.00,Wunderground v.1.15,2013-12-08 14:52:00,
2013-12-08 08:58:00,13.0,9.6,30.25,East,80,5.0,7.0,86,0.00,,,0.00,Wunderground v.1.15,2013-12-08 14:58:00,
2013-12-08 09:03:00,13.1,9.7,30.25,ESE,122,4.0,7.0,86,0.00,,,0.00,Wunderground v.1.15,2013-12-08 15:03:00,
2013-12-08 09:09:00,13.0,9.6,30.25,ENE,76,5.0,7.0,86,0.00,,,0.00,Wunderground v.1.15,2013-12-08 15:09:00,
2013-12-08 09:15:00,13.1,9.7,30.25,North,10,6.0,10.0,86,0.00,,,0.00,Wunderground v.1.15,2013-12-08 15:15:00,
2013-12-08 09:21:00,13.2,9.8,30.25,ENE,76,5.0,7.0,86,0.00,,,0.00,Wunderground v.1.15,2013-12-08 15:21:00,
2013-12-08 09:27:00,13.4,10.0,30.24,ESE,107,3.0,7.0,86,0.00,,,0.00,Wunderground v.1.15,2013-12-08 15:27:00,
2013-12-08 09:33:00,13.5,10.1,30.24,East,91,3.0,7.0,86,0.00,,,0.00,Wunderground v.1.15,2013-12-08 15:33:00,
2013-12-08 09:39:00,13.5,10.4,30.24,ENE,72,4.0,10.0,87,0.00,,,0.00,Wunderground v.1.15,2013-12-08 15:39:00,
2013-12-08 09:45:00,13.5,10.4,30.24,NE,38,4.0,7.0,87,0.00,,,0.00,Wunderground v.1.15,2013-12-08 15:45:00,
2013-12-08 09:51:00,13.6,10.5,30.25,East,96,4.0,7.0,87,0.00,,,0.00,Wunderground v.1.15,2013-12-08 15:51:00,
2013-12-08 09:56:00,13.6,10.7,30.24,ENE,73,4.0,7.0,88,0.00,,,0.00,Wunderground v.1.15,2013-12-08 15:56:00,
2013-12-08 10:02:00,13.9,11.0,30.24,NE,51,3.0,7.0,88,0.00,,,0.00,Wunderground v.1.15,2013-12-08 16:02:00,
2013-12-08 10:08:00,14.0,11.1,30.24,East,96,3.0,7.0,88,0.00,,,0.00,Wunderground v.1.15,2013-12-08 16:08:00,
2013-12-08 10:14:00,14.0,11.1,30.23,ENE,69,3.0,7.0,88,0.00,,,0.00,Wunderground v.1.15,2013-12-08 16:14:00,
2013-12-08 10:20:00,14.1,11.2,30.23,East,84,4.0,4.0,88,0.00,,,0.00,Wunderground v.1.15,2013-12-08 16:20:00,
2013-12-08 10:25:00,14.2,11.3,30.23,ENE,70,4.0,7.0,88,0.00,,,0.00,Wunderground v.1.15,2013-12-08 16:25:00,
2013-12-08 10:31:00,14.3,11.4,30.22,ENE,62,4.0,7.0,88,0.00,,,0.00,Wunderground v.1.15,2013-12-08 16:31:00,
2013-12-08 10:37:00,14.3,11.4,30.22,ENE,64,5.0,7.0,88,0.00,,,0.00,Wunderground v.1.15,2013-12-08 16:37:00,
2013-12-08 10:43:00,14.4,11.5,30.21,ESE,117,5.0,7.0,88,0.00,,,0.00,Wunderground v.1.15,2013-12-08 16:43:00,
2013-12-08 10:48:00,14.6,11.9,30.21,North,11,4.0,7.0,89,0.00,,,0.00,Wunderground v.1.15,2013-12-08 16:48:00,
2013-12-08 10:54:00,14.9,12.2,30.21,NNE,19,3.0,7.0,89,0.00,,,0.00,Wunderground v.1.15,2013-12-08 16:54:00,
2013-12-08 10:59:00,15.0,12.3,30.20,NE,41,3.0,7.0,89,0.00,,,0.00,Wunderground v.1.15,2013-12-08 16:59:00,
2013-12-08 11:05:00,15.2,12.5,30.20,East,82,4.0,7.0,89,0.00,,,0.00,Wunderground v.1.15,2013-12-08 17:05:00,
2013-12-08 11:11:00,15.4,12.7,30.19,East,81,3.0,7.0,89,0.00,,,0.00,Wunderground v.1.15,2013-12-08 17:11:00,
2013-12-08 11:17:00,15.3,12.4,30.19,NNW,344,4.0,7.0,88,0.00,,,0.00,Wunderground v.1.15,2013-12-08 17:17:00,
2013-12-08 11:23:00,15.2,12.3,30.18,ESE,120,4.0,7.0,88,0.00,,,0.00,Wunderground v.1.15,2013-12-08 17:23:00,
2013-12-08 11:29:00,15.3,12.6,30.17,ESE,109,4.0,7.0,89,0.00,,,0.00,Wunderground v.1.15,2013-12-08 17:29:00,
2013-12-08 11:35:00,15.3,12.4,30.17,NNW,342,4.0,7.0,88,0.00,,,0.00,Wunderground v.1.15,2013-12-08 17:35:00,
2013-12-08 11:40:00,15.4,12.7,30.17,ENE,64,4.0,7.0,89,0.00,,,0.00,Wunderground v.1.15,2013-12-08 17:40:00,
2013-12-08 11:46:00,15.5,12.6,30.16,NE,52,4.0,7.0,88,0.00,,,0.00,Wunderground v.1.15,2013-12-08 17:46:00,
2013-12-08 11:51:00,15.5,12.6,30.15,SE,130,4.0,7.0,88,0.00,,,0.00,Wunderground v.1.15,2013-12-08 17:51:00,
2013-12-08 11:57:00,15.7,12.8,30.15,East,96,4.0,7.0,88,0.00,,,0.00,Wunderground v.1.15,2013-12-08 17:57:00,
2013-12-08 12:03:00,15.8,12.9,30.15,East,92,4.0,7.0,88,0.00,,,0.00,Wunderground v.1.15,2013-12-08 18:03:00,
2013-12-08 12:09:00,15.9,13.0,30.15,East,96,3.0,7.0,88,0.00,,,0.00,Wunderground v.1.15,2013-12-08 18:09:00,
2013-12-08 12:14:00,16.1,13.2,30.14,East,83,3.0,7.0,88,0.00,,,0.00,Wunderground v.1.15,2013-12-08 18:14:00,
2013-12-08 12:20:00,16.2,13.3,30.14,East,81,3.0,3.0,88,0.00,,,0.00,Wunderground v.1.15,2013-12-08 18:20:00,
2013-12-08 12:25:00,16.4,13.5,30.13,ENE,59,2.0,7.0,88,0.00,,,0.00,Wunderground v.1.15,2013-12-08 18:25:00,
2013-12-08 12:31:00,16.4,13.5,30.13,ENE,71,3.0,7.0,88,0.00,,,0.00,Wunderground v.1.15,2013-12-08 18:31:00,
2013-12-08 12:36:00,16.4,13.5,30.13,ENE,74,3.0,7.0,88,0.00,,,0.00,Wunderground v.1.15,2013-12-08 18:36:00,
2013-12-08 12:42:00,16.6,13.9,30.12,ENE,63,2.0,7.0,89,0.00,,,0.00,Wunderground v.1.15,2013-12-08 18:42:00,
2013-12-08 12:47:00,16.7,14.0,30.12,NNW,341,2.0,7.0,89,0.00,,,0.00,Wunderground v.1.15,2013-12-08 18:47:00,
2013-12-08 12:53:00,16.7,14.0,30.11,NNW,344,2.0,7.0,89,0.00,,,0.00,Wunderground v.1.15,2013-12-08 18:53:00,
2013-12-08 12:59:00,16.8,14.1,30.11,NE,35,2.0,7.0,89,0.00,,,0.00,Wunderground v.1.15,2013-12-08 18:59:00,
2013-12-08 13:05:00,16.9,14.2,30.11,East,94,3.0,7.0,89,0.00,,,0.00,Wunderground v.1.15,2013-12-08 19:05:00,
2013-12-08 13:11:00,17.0,14.3,30.11,NNE,32,2.0,7.0,89,0.00,,,0.00,Wunderground v.1.15,2013-12-08 19:11:00,
2013-12-08 13:16:00,17.1,14.4,30.10,ENE,68,2.0,7.0,89,0.00,,,0.00,Wunderground v.1.15,2013-12-08 19:16:00,
2013-12-08 13:22:00,17.0,14.3,30.10,ENE,65,3.0,7.0,89,0.00,,,0.00,Wunderground v.1.15,2013-12-08 19:22:00,
2013-12-08 13:28:00,17.0,14.3,30.09,East,88,3.0,7.0,89,0.00,,,0.00,Wunderground v.1.15,2013-12-08 19:28:00,
2013-12-08 13:34:00,17.3,14.9,30.09,North,360,3.0,7.0,90,0.00,,,0.00,Wunderground v.1.15,2013-12-08 19:34:00,
2013-12-08 13:40:00,17.5,15.1,30.09,NE,52,2.0,7.0,90,0.00,,,0.00,Wunderground v.1.15,2013-12-08 19:40:00,
2013-12-08 13:46:00,17.4,14.7,30.09,ENE,66,3.0,7.0,89,0.00,,,0.00,Wunderground v.1.15,2013-12-08 19:46:00,
2013-12-08 13:51:00,17.5,14.8,30.09,East,79,3.0,7.0,89,0.00,,,0.00,Wunderground v.1.15,2013-12-08 19:51:00,
2013-12-08 13:57:00,17.5,14.8,30.08,ENE,75,2.0,7.0,89,0.00,,,0.00,Wunderground v.1.15,2013-12-08 19:57:00,
2013-12-08 14:03:00,17.5,15.1,30.08,ENE,75,2.0,7.0,90,0.00,,,0.00,Wunderground v.1.15,2013-12-08 20:03:00,
2013-12-08 14:09:00,17.6,15.2,30.07,ENE,75,1.0,7.0,90,0.00,,,0.00,Wunderground v.1.15,2013-12-08 20:09:00,
2013-12-08 14:15:00,17.6,15.2,30.07,North,355,2.0,7.0,90,0.00,,,0.00,Wunderground v.1.15,2013-12-08 20:15:00,
2013-12-08 14:20:00,17.5,14.8,30.06,East,84,2.0,7.0,89,0.00,,,0.00,Wunderground v.1.15,2013-12-08 20:20:00,
2013-12-08 14:26:00,17.3,14.6,30.07,East,87,3.0,7.0,89,0.00,,,0.00,Wunderground v.1.15,2013-12-08 20:26:00,
2013-12-08 14:32:00,17.2,14.5,30.07,ENE,74,3.0,7.0,89,0.00,,,0.00,Wunderground v.1.15,2013-12-08 20:32:00,
2013-12-08 14:38:00,17.3,14.6,30.07,ENE,74,2.0,7.0,89,0.00,,,0.00,Wunderground v.1.15,2013-12-08 20:38:00,
2013-12-08 14:43:00,17.3,14.6,30.07,NE,56,1.0,7.0,89,0.00,,,0.00,Wunderground v.1.15,2013-12-08 20:43:00,
2013-12-08 14:49:00,17.3,14.6,30.07,NE,46,2.0,7.0,89,0.00,,,0.00,Wunderground v.1.15,2013-12-08 20:49:00,
2013-12-08 14:55:00,17.5,15.1,30.06,NE,46,1.0,7.0,90,0.00,,,0.00,Wunderground v.1.15,2013-12-08 20:55:00,
2013-12-08 15:01:00,17.6,15.2,30.06,NE,46,1.0,7.0,90,0.00,,,0.00,Wunderground v.1.15,2013-12-08 21:01:00,
2013-12-08 15:07:00,17.6,15.2,30.07,NE,45,1.0,7.0,90,0.00,,,0.00,Wunderground v.1.15,2013-12-08 21:07:00,
2013-12-08 15:13:00,17.7,15.3,30.06,NE,46,1.0,7.0,90,0.00,,,0.00,Wunderground v.1.15,2013-12-08 21:13:00,
2013-12-08 15:19:00,17.7,15.3,30.06,NE,48,1.0,7.0,90,0.00,,,0.00,Wunderground v.1.15,2013-12-08 21:19:00,
2013-12-08 15:24:00,17.7,15.3,30.06,NE,48,1.0,7.0,90,0.00,,,0.00,Wunderground v.1.15,2013-12-08 21:24:00,
2013-12-08 15:30:00,17.7,15.3,30.06,North,349,2.0,2.0,90,0.00,,,0.00,Wunderground v.1.15,2013-12-08 21:30:00,
2013-12-08 15:36:00,17.7,15.3,30.06,North,349,1.0,7.0,90,0.00,,,0.00,Wunderground v.1.15,2013-12-08 21:36:00,
2013-12-08 15:42:00,17.7,15.3,30.06,ENE,60,1.0,7.0,90,0.00,,,0.00,Wunderground v.1.15,2013-12-08 21:42:00,
2013-12-08 15:47:00,17.7,15.3,30.06,ENE,60,2.0,7.0,90,0.00,,,0.00,Wunderground v.1.15,2013-12-08 21:47:00,
2013-12-08 15:53:00,17.7,15.3,30.06,ENE,61,1.0,7.0,90,0.00,,,0.00,Wunderground v.1.15,2013-12-08 21:53:00,
2013-12-08 15:59:00,17.7,15.3,30.06,ENE,60,1.0,7.0,90,0.00,,,0.00,Wunderground v.1.15,2013-12-08 21:59:00,
2013-12-08 16:05:00,17.8,15.4,30.06,ENE,61,1.0,7.0,90,0.00,,,0.00,Wunderground v.1.15,2013-12-08 22:05:00,
2013-12-08 16:11:00,17.8,15.4,30.06,ENE,61,0.0,7.0,90,0.00,,,0.00,Wunderground v.1.15,2013-12-08 22:11:00,
2013-12-08 16:17:00,17.8,15.4,30.06,ENE,60,1.0,7.0,90,0.00,,,0.00,Wunderground v.1.15,2013-12-08 22:17:00,
2013-12-08 16:23:00,17.8,15.4,30.06,ENE,60,0.0,7.0,90,0.00,,,0.00,Wunderground v.1.15,2013-12-08 22:23:00,
2013-12-08 16:28:00,17.7,15.3,30.06,ENE,60,0.0,7.0,90,0.00,,,0.00,Wunderground v.1.15,2013-12-08 22:28:00,
2013-12-08 16:34:00,17.7,15.3,30.06,ENE,61,0.0,7.0,90,0.00,,,0.00,Wunderground v.1.15,2013-12-08 22:34:00,
2013-12-08 16:40:00,17.7,15.3,30.05,ENE,60,0.0,7.0,90,0.00,,,0.00,Wunderground v.1.15,2013-12-08 22:40:00,
2013-12-08 16:46:00,17.7,15.3,30.04,ENE,61,0.0,7.0,90,0.00,,,0.00,Wunderground v.1.15,2013-12-08 22:46:00,
2013-12-08 16:51:00,17.7,15.3,30.04,ENE,61,0.0,7.0,90,0.00,,,0.00,Wunderground v.1.15,2013-12-08 22:51:00,
2013-12-08 16:56:00,17.6,15.2,30.03,ENE,61,1.0,7.0,90,0.00,,,0.00,Wunderground v.1.15,2013-12-08 22:56:00,
2013-12-08 17:02:00,17.6,15.2,30.03,ENE,61,1.0,7.0,90,0.00,,,0.00,Wunderground v.1.15,2013-12-08 23:02:00,
2013-12-08 17:08:00,17.6,15.2,30.03,ENE,61,0.0,7.0,90,0.00,,,0.00,Wunderground v.1.15,2013-12-08 23:08:00,
2013-12-08 17:14:00,17.5,15.1,30.03,ENE,60,0.0,7.0,90,0.00,,,0.00,Wunderground v.1.15,2013-12-08 23:14:00,
2013-12-08 17:19:00,17.5,15.1,30.04,ENE,61,0.0,7.0,90,0.00,,,0.00,Wunderground v.1.15,2013-12-08 23:19:00,
2013-12-08 17:25:00,17.5,15.1,30.04,ENE,60,0.0,7.0,90,0.00,,,0.00,Wunderground v.1.15,2013-12-08 23:25:00,
2013-12-08 17:30:00,17.4,15.0,30.04,ENE,61,0.0,7.0,90,0.00,,,0.00,Wunderground v.1.15,2013-12-08 23:30:00,
2013-12-08 17:36:00,17.4,15.0,30.04,ENE,60,0.0,7.0,90,0.00,,,0.00,Wunderground v.1.15,2013-12-08 23:36:00,
2013-12-08 17:42:00,17.4,15.0,30.04,ENE,61,0.0,7.0,90,0.00,,,0.00,Wunderground v.1.15,2013-12-08 23:42:00,
2013-12-08 17:48:00,17.4,15.0,30.05,ENE,60,0.0,7.0,90,0.00,,,0.00,Wunderground v.1.15,2013-12-08 23:48:00,
2013-12-08 17:54:00,17.4,15.0,30.06,ENE,61,0.0,7.0,90,0.00,,,0.00,Wunderground v.1.15,2013-12-08 23:54:00,
2013-12-08 17:59:00,17.4,15.0,30.06,ENE,61,0.0,7.0,90,0.00,,,0.00,Wunderground v.1.15,2013-12-08 23:59:00,
2013-12-08 18:05:00,17.4,15.0,30.06,ENE,61,0.0,7.0,90,0.00,,,0.00,Wunderground v.1.15,2013-12-09 00:05:00,
2013-12-08 18:11:00,17.4,15.0,30.06,ENE,61,0.0,7.0,90,0.00,,,0.00,Wunderground v.1.15,2013-12-09 00:11:00,
2013-12-08 18:17:00,17.5,15.1,30.06,ENE,61,0.0,7.0,90,0.00,,,0.00,Wunderground v.1.15,2013-12-09 00:17:00,
2013-12-08 18:23:00,17.5,15.1,30.07,ENE,61,0.0,7.0,90,0.00,,,0.00,Wunderground v.1.15,2013-12-09 00:23:00,
2013-12-08 18:28:00,17.5,15.1,30.07,ENE,61,0.0,7.0,90,0.00,,,0.00,Wunderground v.1.15,2013-12-09 00:28:00,
2013-12-08 18:34:00,17.5,15.1,30.07,ENE,61,0.0,7.0,90,0.00,,,0.00,Wunderground v.1.15,2013-12-09 00:34:00,
2013-12-08 18:40:00,17.5,15.1,30.07,ENE,60,0.0,7.0,90,0.00,,,0.00,Wunderground v.1.15,2013-12-09 00:40:00,
2013-12-08 18:45:00,17.5,15.3,30.06,ENE,61,0.0,7.0,91,0.00,,,0.00,Wunderground v.1.15,2013-12-09 00:45:00,
2013-12-08 18:50:00,17.5,15.3,30.06,ENE,60,0.0,7.0,91,0.00,,,0.00,Wunderground v.1.15,2013-12-09 00:50:00,
2013-12-08 18:56:00,17.5,15.3,30.07,ENE,60,0.0,7.0,91,0.00,,,0.00,Wunderground v.1.15,2013-12-09 00:56:00,
2013-12-08 19:01:00,17.5,15.3,30.07,ENE,60,0.0,7.0,91,0.00,,,0.00,Wunderground v.1.15,2013-12-09 01:01:00,
2013-12-08 19:07:00,17.6,15.2,30.07,ENE,61,0.0,7.0,90,0.00,,,0.00,Wunderground v.1.15,2013-12-09 01:07:00,
2013-12-08 19:13:00,17.6,15.2,30.08,ENE,60,0.0,7.0,90,0.00,,,0.00,Wunderground v.1.15,2013-12-09 01:13:00,
2013-12-08 19:19:00,17.6,15.4,30.08,ENE,60,0.0,7.0,91,0.00,,,0.00,Wunderground v.1.15,2013-12-09 01:19:00,
2013-12-08 19:25:00,17.7,15.5,30.07,ENE,61,0.0,7.0,91,0.00,,,0.00,Wunderground v.1.15,2013-12-09 01:25:00,
2013-12-08 19:31:00,17.6,15.4,30.08,ENE,61,0.0,7.0,91,0.00,,,0.00,Wunderground v.1.15,2013-12-09 01:31:00,
2013-12-08 19:36:00,17.6,15.4,30.08,ENE,61,0.0,7.0,91,0.00,,,0.00,Wunderground v.1.15,2013-12-09 01:36:00,
2013-12-08 19:42:00,17.6,15.4,30.08,ENE,61,0.0,7.0,91,0.00,,,0.00,Wunderground v.1.15,2013-12-09 01:42:00,
2013-12-08 19:48:00,17.6,15.4,30.08,ENE,61,1.0,7.0,91,0.00,,,0.00,Wunderground v.1.15,2013-12-09 01:48:00,
2013-12-08 19:54:00,17.6,15.4,30.07,ENE,61,0.0,7.0,91,0.00,,,0.00,Wunderground v.1.15,2013-12-09 01:54:00,
2013-12-08 20:00:00,17.6,15.4,30.07,ENE,60,1.0,1.0,91,0.00,,,0.00,Wunderground v.1.15,2013-12-09 02:00:00,
2013-12-08 20:05:00,17.6,15.4,30.07,ENE,61,1.0,7.0,91,0.00,,,0.00,Wunderground v.1.15,2013-12-09 02:05:00,
2013-12-08 20:11:00,17.6,15.4,30.08,ENE,59,1.0,7.0,91,0.00,,,0.00,Wunderground v.1.15,2013-12-09 02:11:00,
2013-12-08 20:17:00,17.6,15.4,30.08,SSW,213,1.0,7.0,91,0.00,,,0.00,Wunderground v.1.15,2013-12-09 02:17:00,
2013-12-08 20:23:00,17.6,15.4,30.08,SSW,213,1.0,7.0,91,0.00,,,0.00,Wunderground v.1.15,2013-12-09 02:23:00,
2013-12-08 20:29:00,17.5,15.3,30.08,SW,219,1.0,7.0,91,0.00,,,0.00,Wunderground v.1.15,2013-12-09 02:29:00,
2013-12-08 20:35:00,17.5,15.3,30.08,SW,229,1.0,7.0,91,0.00,,,0.00,Wunderground v.1.15,2013-12-09 02:35:00,
2013-12-08 20:40:00,17.4,15.2,30.09,SW,229,1.0,1.0,91,0.00,,,0.00,Wunderground v.1.15,2013-12-09 02:40:00,
2013-12-08 20:46:00,17.4,15.2,30.08,SW,229,1.0,7.0,91,0.00,,,0.00,Wunderground v.1.15,2013-12-09 02:46:00,
2013-12-08 20:52:00,17.4,15.2,30.08,SW,229,0.0,7.0,91,0.00,,,0.00,Wunderground v.1.15,2013-12-09 02:52:00,
2013-12-08 20:58:00,17.3,15.1,30.08,SW,229,0.0,7.0,91,0.00,,,0.00,Wunderground v.1.15,2013-12-09 02:58:00,
2013-12-08 21:03:00,17.2,15.0,30.08,SW,228,1.0,7.0,91,0.00,,,0.00,Wunderground v.1.15,2013-12-09 03:03:00,
2013-12-08 21:09:00,17.1,14.9,30.08,WSW,241,1.0,7.0,91,0.00,,,0.00,Wunderground v.1.15,2013-12-09 03:09:00,
2013-12-08 21:15:00,17.1,14.9,30.08,SW,225,1.0,7.0,91,0.00,,,0.00,Wunderground v.1.15,2013-12-09 03:15:00,
2013-12-08 21:21:00,17.1,14.9,30.08,SW,234,1.0,7.0,91,0.00,,,0.00,Wunderground v.1.15,2013-12-09 03:21:00,
2013-12-08 21:27:00,17.0,14.8,30.08,SW,235,1.0,7.0,91,0.00,,,0.00,Wunderground v.1.15,2013-12-09 03:27:00,
2013-12-08 21:32:00,17.0,14.8,30.08,SW,220,1.0,7.0,91,0.00,,,0.00,Wunderground v.1.15,2013-12-09 03:32:00,
2013-12-08 21:38:00,17.0,14.8,30.08,SW,220,1.0,7.0,91,0.00,,,0.00,Wunderground v.1.15,2013-12-09 03:38:00,
2013-12-08 21:44:00,17.0,14.8,30.08,SW,219,0.0,7.0,91,0.00,,,0.00,Wunderground v.1.15,2013-12-09 03:44:00,
2013-12-08 21:50:00,16.9,14.7,30.08,SSW,213,1.0,7.0,91,0.00,,,0.00,Wunderground v.1.15,2013-12-09 03:50:00,
2013-12-08 21:55:00,16.8,14.6,30.07,WSW,240,1.0,7.0,91,0.00,,,0.00,Wunderground v.1.15,2013-12-09 03:55:00,
2013-12-08 22:01:00,16.8,14.6,30.07,WSW,240,1.0,7.0,91,0.00,,,0.00,Wunderground v.1.15,2013-12-09 04:01:00,
2013-12-08 22:07:00,16.8,14.6,30.07,WSW,240,1.0,7.0,91,0.00,,,0.00,Wunderground v.1.15,2013-12-09 04:07:00,
2013-12-08 22:13:00,16.7,14.5,30.08,WSW,248,1.0,7.0,91,0.00,,,0.00,Wunderground v.1.15,2013-12-09 04:13:00,
2013-12-08 22:18:00,16.6,14.4,30.08,SW,226,1.0,7.0,91,0.00,,,0.00,Wunderground v.1.15,2013-12-09 04:18:00,
2013-12-08 22:24:00,16.5,14.3,30.08,SW,226,1.0,7.0,91,0.00,,,0.00,Wunderground v.1.15,2013-12-09 04:24:00,
2013-12-08 22:30:00,16.4,14.2,30.09,SW,232,1.0,7.0,91,0.00,,,0.00,Wunderground v.1.15,2013-12-09 04:30:00,
2013-12-08 22:36:00,16.3,13.9,30.08,SW,218,1.0,7.0,90,0.00,,,0.00,Wunderground v.1.15,2013-12-09 04:36:00,
2013-12-08 22:42:00,16.2,13.8,30.08,SW,218,1.0,7.0,90,0.00,,,0.00,Wunderground v.1.15,2013-12-09 04:42:00,
2013-12-08 22:47:00,16.2,13.8,30.09,SW,234,1.0,7.0,90,0.00,,,0.00,Wunderground v.1.15,2013-12-09 04:47:00,
2013-12-08 22:53:00,16.1,13.7,30.08,SW,234,1.0,7.0,90,0.00,,,0.00,Wunderground v.1.15,2013-12-09 04:53:00,
2013-12-08 22:59:00,16.0,13.6,30.08,SW,225,1.0,7.0,90,0.00,,,0.00,Wunderground v.1.15,2013-12-09 04:59:00,
2013-12-08 23:01:00,16.0,13.6,30.09,SW,225,1.0,7.0,90,0.00,,,0.00,Wunderground v.1.15,2013-12-09 05:01:00,
2013-12-08 23:02:00,16.0,13.6,30.09,SW,225,1.0,7.0,90,0.00,,,0.00,Wunderground v.1.15,2013-12-09 05:02:00,
2013-12-08 23:03:00,15.9,13.5,30.09,SW,225,1.0,7.0,90,0.00,,,0.00,Wunderground v.1.15,2013-12-09 05:03:00,
2013-12-08 23:04:00,15.9,13.5,30.09,WSW,245,1.0,7.0,90,0.00,,,0.00,Wunderground v.1.15,2013-12-09 05:04:00,
2013-12-08 23:05:00,15.9,13.5,30.09,SW,232,1.0,7.0,90,0.00,,,0.00,Wunderground v.1.15,2013-12-09 05:05:00,
2013-12-08 23:10:00,15.8,13.4,30.09,SW,236,1.0,7.0,90,0.00,,,0.00,Wunderground v.1.15,2013-12-09 05:10:00,
2013-12-08 23:11:00,15.8,13.4,30.09,SW,236,1.0,7.0,90,0.00,,,0.00,Wunderground v.1.15,2013-12-09 05:11:00,
2013-12-08 23:17:00,15.8,13.4,30.10,SW,227,1.0,7.0,90,0.00,,,0.00,Wunderground v.1.15,2013-12-09 05:17:00,
2013-12-08 23:22:00,15.8,13.4,30.10,WSW,240,1.0,7.0,90,0.00,,,0.00,Wunderground v.1.15,2013-12-09 05:22:00,
2013-12-08 23:28:00,15.7,13.3,30.10,WSW,244,2.0,7.0,90,0.00,,,0.00,Wunderground v.1.15,2013-12-09 05:28:00,
2013-12-08 23:34:00,15.7,13.3,30.10,WSW,245,2.0,7.0,90,0.00,,,0.00,Wunderground v.1.15,2013-12-09 05:34:00,
2013-12-08 23:39:00,15.6,13.2,30.10,SW,236,1.0,7.0,90,0.00,,,0.00,Wunderground v.1.15,2013-12-09 05:39:00,
2013-12-08 23:45:00,15.6,13.2,30.11,SW,229,1.0,7.0,90,0.00,,,0.00,Wunderground v.1.15,2013-12-09 05:45:00,
2013-12-08 23:51:00,15.5,13.1,30.10,SSW,208,1.0,2.0,90,0.00,,,0.00,Wunderground v.1.15,2013-12-09 05:51:00,
2013-12-08 23:57:00,15.3,12.6,30.10,WSW,252,1.0,7.0,89,0.00,,,0.00,Wunderground v.1.15,2013-12-09 05:57:00,